Location: Unspecified
(43.4680°N, 87.1740°E)
Time: 19:34:33
(UTC+00:00)

CARTOSAT-1 - Pass Details

Date: 17 April 2021
Orbit: 615 x 619 km, 97.8° (Epoch: 12 May)

Event Time Altitude Azimuth Distance (km) Brightness Sun altitude
Exits shadow 15:56:31 52° 302° (WNW) 777 4.3 -27.8°
Drops below altitude 10° 16:00:06 10° 340° (NNW) 1,992 7.0 -28.2°
Sets 16:02:19 0° 344° (NNW) 2,902 8.1 -28.4°
